Location: �clusier
(49.9361°N, 2.7869°E)
Time: 22:21:08
(UTC+00:00)

Cosmos 1844 - Pass Details

Date: 16 June 2021
Orbit: 823 x 867 km, 70.9° (Epoch: 01 August)

Event Time Altitude Azimuth Distance (km) Brightness Sun altitude
Rises 21:17:52 0° 330° (NNW) 3,371 9.1 -9.3°
Reaches altitude 10° 21:20:18 10° 332° (NNW) 2,435 7.7 -9.6°
Maximum altitude 21:25:54 85° 60° (ENE) 838 3.7 -10.1°
Enters shadow 21:30:50 14° 150° (SSE) 2,186 5.2 -10.5°
